Tracking 28052 objects as of 21-Sep-2023
HD Live streaming from Space Station
objects crossing your sky now

TITAN 4B DEB

Track TITAN 4B DEB now!
10-day predictions


NORAD ID: 40528
Int'l Code: 2000-047E
Perigee: 551.7 km
Apogee: 637.3 km
Inclination: 68.0 °
Period: 96.4 minutes
Semi major axis: 6965 km
RCS: Unknown
Launch date: August 17, 2000
Source: United States (US)
Launch site: AIR FORCE WESTERN TEST RANGE (AFWTR)

Note: This is SATELLITE DEBRIS
Your satellite tracking list
Your tracking list is empty




NASA's NSSDC Master Catalog

Two Line Element Set (TLE):
1 40528U 00047E   23263.89437678  .00000796  00000-0  84313-4 0  9993
2 40528  67.9936  86.9288 0061404 342.0113  85.3220 14.93396139463136
Source of the keplerian elements: AFSPC